| time (UTC) | temp F | wind direction | speed MPH | gust MPH | rain 1hr in | rain 24hr in | rain mn in | humidity % | barometer mb |
| 20260505054545 | 69 | 252 | 3.0 | 5.0 | 0.00 | 0.00 | 0.00 | 53 | 1008.5 |
| 20260505054043 | 69 | 216 | 3.0 | 5.0 | 0.00 | 0.00 | 0.00 | 53 | 1008.3 |
| 20260505053540 | 69 | 231 | 3.0 | 6.0 | 0.00 | 0.00 | 0.00 | 53 | 1008.0 |
| 20260505053037 | 70 | 133 | 1.0 | 3.0 | 0.00 | 0.00 | 0.00 | 53 | 1008.0 |
| 20260505052534 | 70 | 260 | 2.0 | 6.0 | 0.00 | 0.00 | 0.00 | 52 | 1008.2 |
| 20260505052032 | 70 | 236 | 1.0 | 5.0 | 0.00 | 0.00 | 0.00 | 52 | 1008.2 |
| 20260505051528 | 70 | 303 | 3.0 | 5.0 | 0.00 | 0.00 | 0.00 | 52 | 1008.0 |
| 20260505051026 | 70 | 193 | 3.0 | 5.0 | 0.00 | 0.00 | 0.00 | 52 | 1008.2 |
| 20260505050524 | 69 | 211 | 3.0 | 3.0 | 0.00 | 0.00 | 0.00 | 53 | 1008.3 |
| 20260505041452 | 70 | 217 | 3.0 | 8.0 | 0.00 | 0.00 | 0.00 | 54 | 1008.8 |
| 20260505040949 | 70 | 249 | 3.0 | 5.0 | 0.00 | 0.00 | 0.00 | 54 | 1008.9 |
| 20260505040446 | 70 | 226 | 1.0 | 2.0 | 0.00 | 0.00 | 0.00 | 54 | 1008.8 |
| 20260505035943 | 70 | 254 | 3.0 | 6.0 | 0.00 | 0.00 | 0.00 | 54 | 1008.9 |
| 20260505035439 | 70 | 131 | 2.0 | 6.0 | 0.00 | 0.00 | 0.00 | 54 | 1008.9 |
| 20260505034936 | 70 | 238 | 3.0 | 10.0 | 0.00 | 0.00 | 0.00 | 54 | 1008.9 |
| 20260505034433 | 70 | 296 | 1.0 | 5.0 | 0.00 | 0.00 | 0.00 | 55 | 1008.8 |
| 20260505033930 | 70 | 241 | 3.0 | 6.0 | 0.00 | 0.00 | 0.00 | 55 | 1009.0 |
| 20260505033426 | 70 | 174 | 3.0 | 5.0 | 0.00 | 0.00 | 0.00 | 55 | 1008.8 |
| 20260505032925 | 70 | 208 | 1.0 | 3.0 | 0.00 | 0.00 | 0.00 | 55 | 1009.1 |
| 20260505032422 | 70 | 153 | 1.0 | 2.0 | 0.00 | 0.00 | 0.00 | 55 | 1009.1 |
| 20260505031918 | 70 | 244 | 2.0 | 3.0 | 0.00 | 0.00 | 0.00 | 56 | 1009.0 |
| 20260505031415 | 70 | 172 | 1.0 | 3.0 | 0.00 | 0.00 | 0.00 | 56 | 1009.0 |
| 20260505030912 | 69 | 148 | 0.0 | 5.0 | 0.00 | 0.00 | 0.00 | 56 | 1009.1 |
| 20260505030408 | 70 | 186 | 0.0 | 2.0 | 0.00 | 0.00 | 0.00 | 56 | 1008.9 |
| 20260505025903 | 69 | 132 | 1.0 | 2.0 | 0.00 | 0.00 | 0.00 | 56 | 1008.9 |
| 20260505025401 | 70 | 141 | 1.0 | 3.0 | 0.00 | 0.00 | 0.00 | 56 | 1008.7 |
| 20260505024900 | 70 | 195 | 1.0 | 3.0 | 0.00 | 0.00 | 0.00 | 56 | 1008.6 |
| 20260505024357 | 69 | 161 | 3.0 | 6.0 | 0.00 | 0.00 | 0.00 | 56 | 1008.5 |
| 20260505023854 | 69 | 141 | 0.0 | 2.0 | 0.00 | 0.00 | 0.00 | 57 | 1008.4 |
| 20260505023351 | 69 | 147 | 0.0 | 2.0 | 0.00 | 0.00 | 0.00 | 58 | 1008.5 |
| 20260505022848 | 69 | 217 | 1.0 | 2.0 | 0.00 | 0.00 | 0.00 | 58 | 1008.3 |
| 20260505022345 | 69 | 181 | 1.0 | 2.0 | 0.00 | 0.00 | 0.00 | 58 | 1008.3 |
| 20260505021842 | 69 | 160 | 0.0 | 2.0 | 0.00 | 0.00 | 0.00 | 58 | 1008.2 |
| 20260505021339 | 69 | 151 | 0.0 | 2.0 | 0.00 | 0.00 | 0.00 | 58 | 1008.0 |
| 20260505020834 | 69 | 127 | 0.0 | 3.0 | 0.00 | 0.00 | 0.00 | 58 | 1008.2 |
| 20260505020330 | 69 | 180 | 2.0 | 3.0 | 0.00 | 0.00 | 0.00 | 58 | 1007.9 |
| 20260505015827 | 69 | 149 | 2.0 | 3.0 | 0.00 | 0.00 | 0.00 | 58 | 1007.9 |
| 20260505015324 | 69 | 168 | 1.0 | 3.0 | 0.00 | 0.00 | 0.00 | 58 | 1007.8 |
| 20260505014822 | 70 | 135 | 0.0 | 1.0 | 0.00 | 0.00 | 0.00 | 57 | 1007.7 |
| 20260505014319 | 70 | 178 | 1.0 | 2.0 | 0.00 | 0.00 | 0.00 | 57 | 1007.7 |
| 20260505013815 | 70 | 158 | 1.0 | 3.0 | 0.00 | 0.00 | 0.00 | 56 | 1007.7 |
| 20260505013312 | 70 | 145 | 1.0 | 2.0 | 0.00 | 0.00 | 0.00 | 56 | 1007.7 |
| 20260505012811 | 70 | 155 | 0.0 | 3.0 | 0.00 | 0.00 | 0.00 | 56 | 1007.7 |
| 20260505012308 | 70 | 196 | 1.0 | 2.0 | 0.00 | 0.00 | 0.00 | 56 | 1007.7 |
| 20260505011804 | 71 | 173 | 2.0 | 3.0 | 0.00 | 0.00 | 0.00 | 55 | 1007.5 |
| 20260505011301 | 71 | 168 | 0.0 | 6.0 | 0.00 | 0.00 | 0.00 | 55 | 1007.4 |
| 20260505010757 | 71 | 196 | 2.0 | 2.0 | 0.00 | 0.00 | 0.00 | 54 | 1007.7 |
| 20260505010253 | 71 | 145 | 1.0 | 3.0 | 0.00 | 0.00 | 0.00 | 54 | 1007.5 |
| 20260505005749 | 71 | 155 | 1.0 | 1.0 | 0.00 | 0.00 | 0.00 | 54 | 1007.5 |
| 20260505005246 | 71 | 137 | 1.0 | 1.0 | 0.00 | 0.00 | 0.00 | 53 | 1007.7 |
| 20260505004744 | 72 | 146 | 0.0 | 2.0 | 0.00 | 0.00 | 0.00 | 53 | 1007.7 |
| 20260505004240 | 72 | 160 | 1.0 | 3.0 | 0.00 | 0.00 | 0.00 | 52 | 1007.7 |
| 20260505003737 | 72 | 157 | 2.0 | 2.0 | 0.00 | 0.00 | 0.00 | 51 | 1007.5 |
| 20260505003235 | 72 | 188 | 0.0 | 2.0 | 0.00 | 0.00 | 0.00 | 51 | 1007.5 |
| 20260505002731 | 72 | 126 | 1.0 | 1.0 | 0.00 | 0.00 | 0.00 | 51 | 1007.7 |
| 20260505002228 | 73 | 166 | 1.0 | 2.0 | 0.00 | 0.00 | 0.00 | 51 | 1007.5 |
| 20260505001726 | 73 | 212 | 1.0 | 2.0 | 0.00 | 0.00 | 0.00 | 50 | 1007.5 |
| 20260505001223 | 73 | 237 | 1.0 | 2.0 | 0.00 | 0.00 | 0.00 | 49 | 1007.8 |
| 20260505000720 | 73 | 232 | 1.0 | 2.0 | 0.00 | 0.00 | 0.00 | 49 | 1007.7 |
| 20260505000219 | 74 | 202 | 2.0 | 2.0 | 0.00 | 0.00 | 0.00 | 48 | 1007.6 |
| 20260504235714 | 74 | 200 | 1.0 | 3.0 | 0.00 | 0.00 | 0.00 | 48 | 1007.9 |
| 20260504235210 | 74 | 173 | 2.0 | 3.0 | 0.00 | 0.00 | 0.00 | 47 | 1007.9 |
| 20260504234708 | 74 | 199 | 2.0 | 3.0 | 0.00 | 0.00 | 0.00 | 47 | 1008.0 |
| 20260504234205 | 74 | 141 | 1.0 | 3.0 | 0.00 | 0.00 | 0.00 | 46 | 1008.2 |
| 20260504233701 | 74 | 227 | 1.0 | 3.0 | 0.00 | 0.00 | 0.00 | 46 | 1008.0 |
| 20260504233157 | 75 | 266 | 1.0 | 2.0 | 0.00 | 0.00 | 0.00 | 45 | 1008.3 |
| 20260504232654 | 75 | 192 | 2.0 | 7.0 | 0.00 | 0.00 | 0.00 | 45 | 1008.4 |
| 20260504232151 | 75 | 288 | 3.0 | 5.0 | 0.00 | 0.00 | 0.00 | 44 | 1008.3 |
| 20260504231648 | 75 | 246 | 3.0 | 3.0 | 0.00 | 0.00 | 0.00 | 44 | 1008.4 |
| 20260504231144 | 76 | 230 | 2.0 | 5.0 | 0.00 | 0.00 | 0.00 | 44 | 1008.4 |
| 20260504230641 | 76 | 239 | 2.0 | 6.0 | 0.00 | 0.00 | 0.00 | 44 | 1008.2 |
| 20260504230140 | 76 | 254 | 4.0 | 8.0 | 0.00 | 0.00 | 0.00 | 43 | 1008.4 |
| 20260504225638 | 76 | 153 | 3.0 | 5.0 | 0.00 | 0.00 | 0.00 | 43 | 1008.3 |
| 20260504225133 | 76 | 250 | 2.0 | 6.0 | 0.00 | 0.00 | 0.00 | 44 | 1008.6 |
| 20260504224630 | 75 | 252 | 4.0 | 10.0 | 0.00 | 0.00 | 0.00 | 46 | 1008.3 |
| 20260504224127 | 75 | 287 | 3.0 | 5.0 | 0.00 | 0.00 | 0.00 | 49 | 1008.3 |
| 20260504223624 | 75 | 143 | 0.0 | 1.0 | 0.00 | 0.00 | 0.00 | 52 | 1008.5 |
| 20260504223120 | 75 | 191 | 1.0 | 5.0 | 0.00 | 0.00 | 0.00 | 50 | 1008.5 |
| 20260504222617 | 75 | 158 | 1.0 | 3.0 | 0.00 | 0.00 | 0.00 | 50 | 1008.4 |
| 20260504222114 | 75 | 254 | 0.0 | 3.0 | 0.00 | 0.00 | 0.00 | 51 | 1008.6 |
| 20260504221611 | 75 | 164 | 0.0 | 3.0 | 0.00 | 0.00 | 0.00 | 51 | 1008.8 |
| 20260504221108 | 75 | 6 | 0.0 | 2.0 | 0.00 | 0.00 | 0.00 | 51 | 1008.5 |
| 20260504220604 | 74 | 118 | 0.0 | 2.0 | 0.00 | 0.00 | 0.00 | 49 | 1008.8 |
| 20260504215558 | 74 | 254 | 2.0 | 2.0 | 0.00 | 0.00 | 0.00 | 49 | 1008.6 |
| 20260504215056 | 74 | 127 | 1.0 | 2.0 | 0.00 | 0.00 | 0.00 | 49 | 1008.5 |
| 20260504214551 | 74 | 176 | 2.0 | 2.0 | 0.00 | 0.00 | 0.00 | 49 | 1008.5 |
| 20260504214048 | 74 | 317 | 1.0 | 2.0 | 0.00 | 0.00 | 0.00 | 47 | 1009.1 |
| 20260504213544 | 74 | 236 | 1.0 | 3.0 | 0.00 | 0.00 | 0.00 | 48 | 1009.2 |
| 20260504213042 | 74 | 290 | 0.0 | 1.0 | 0.00 | 0.00 | 0.00 | 47 | 1009.3 |
| 20260504212537 | 75 | 281 | 2.0 | 2.0 | 0.00 | 0.00 | 0.00 | 47 | 1009.3 |
| 20260504212035 | 75 | 271 | 1.0 | 3.0 | 0.00 | 0.00 | 0.00 | 46 | 1009.4 |
| 20260504211532 | 75 | 253 | 2.0 | 3.0 | 0.00 | 0.00 | 0.00 | 47 | 1009.4 |
| 20260504211029 | 75 | 231 | 1.0 | 3.0 | 0.00 | 0.00 | 0.00 | 48 | 1009.3 |
| 20260504210526 | 75 | 258 | 1.0 | 2.0 | 0.00 | 0.00 | 0.00 | 50 | 1009.3 |
| 20260504210022 | 75 | 127 | 1.0 | 3.0 | 0.00 | 0.00 | 0.00 | 49 | 1009.6 |
| 20260504205520 | 75 | 270 | 2.0 | 5.0 | 0.00 | 0.00 | 0.00 | 49 | 1009.8 |
| 20260504205018 | 74 | 225 | 2.0 | 5.0 | 0.00 | 0.00 | 0.00 | 50 | 1009.8 |
| 20260504204516 | 75 | 238 | 3.0 | 3.0 | 0.00 | 0.00 | 0.00 | 49 | 1009.8 |
| 20260504204015 | 74 | 187 | 2.0 | 5.0 | 0.00 | 0.00 | 0.00 | 51 | 1009.8 |
| 20260504203512 | 74 | 244 | 3.0 | 5.0 | 0.00 | 0.00 | 0.00 | 50 | 1009.7 |
| 20260504203010 | 74 | 284 | 4.0 | 6.0 | 0.00 | 0.00 | 0.00 | 50 | 1009.9 |
| 20260504202505 | 74 | 325 | 2.0 | 7.0 | 0.00 | 0.00 | 0.00 | 50 | 1010.1 |
| 20260504202002 | 73 | 243 | 5.0 | 7.0 | 0.00 | 0.00 | 0.00 | 51 | 1010.2 |
| 20260504201459 | 73 | 328 | 2.0 | 5.0 | 0.00 | 0.00 | 0.00 | 51 | 1010.1 |
| 20260504200956 | 73 | 322 | 2.0 | 5.0 | 0.00 | 0.00 | 0.00 | 51 | 1010.3 |
| 20260504200453 | 74 | 222 | 3.0 | 5.0 | 0.00 | 0.00 | 0.00 | 51 | 1010.2 |
| 20260504195950 | 74 | 184 | 2.0 | 5.0 | 0.00 | 0.00 | 0.00 | 51 | 1010.2 |
| 20260504195445 | 74 | 264 | 4.0 | 8.0 | 0.00 | 0.00 | 0.00 | 53 | 1010.3 |
| 20260504194942 | 73 | 200 | 1.0 | 2.0 | 0.00 | 0.00 | 0.00 | 52 | 1010.2 |
| 20260504194438 | 73 | 228 | 5.0 | 6.0 | 0.00 | 0.00 | 0.00 | 52 | 1010.4 |
| 20260504193934 | 73 | 257 | 4.0 | 6.0 | 0.00 | 0.00 | 0.00 | 53 | 1010.6 |
| 20260504193432 | 71 | 233 | 1.0 | 3.0 | 0.00 | 0.00 | 0.00 | 56 | 1010.4 |
| 20260504192931 | 71 | 306 | 3.0 | 5.0 | 0.00 | 0.00 | 0.00 | 57 | 1010.6 |
| 20260504192427 | 70 | 265 | 2.0 | 3.0 | 0.00 | 0.00 | 0.00 | 58 | 1010.8 |
| 20260504191926 | 69 | 333 | 0.0 | 2.0 | 0.00 | 0.00 | 0.00 | 61 | 1010.8 |
| 20260504191424 | 69 | 253 | 2.0 | 5.0 | 0.00 | 0.00 | 0.00 | 61 | 1010.9 |
| 20260504190919 | 69 | 11 | 0.0 | 2.0 | 0.00 | 0.00 | 0.00 | 64 | 1011.1 |
| 20260504190415 | 68 | 266 | 0.0 | 2.0 | 0.00 | 0.00 | 0.00 | 65 | 1011.5 |
| 20260504185912 | 68 | 324 | 1.0 | 1.0 | 0.00 | 0.00 | 0.00 | 65 | 1011.2 |
| 20260504185409 | 68 | 28 | 0.0 | 1.0 | 0.00 | 0.00 | 0.00 | 64 | 1011.0 |
| 20260504184905 | 68 | 335 | 0.0 | 1.0 | 0.00 | 0.00 | 0.00 | 64 | 1011.2 |
| 20260504184401 | 68 | 269 | 0.0 | 1.0 | 0.00 | 0.00 | 0.00 | 61 | 1011.6 |
| 20260504183857 | 68 | 252 | 2.0 | 3.0 | 0.00 | 0.00 | 0.00 | 60 | 1011.5 |
| 20260504183354 | 68 | 302 | 2.0 | 5.0 | 0.00 | 0.00 | 0.00 | 60 | 1011.3 |
| 20260504182852 | 69 | 279 | 3.0 | 5.0 | 0.00 | 0.00 | 0.00 | 59 | 1011.3 |
| 20260504182349 | 69 | 250 | 2.0 | 5.0 | 0.00 | 0.00 | 0.00 | 58 | 1011.2 |
| 20260504181845 | 69 | 257 | 3.0 | 6.0 | 0.00 | 0.00 | 0.00 | 58 | 1010.9 |
| 20260504181343 | 69 | 301 | 2.0 | 7.0 | 0.00 | 0.00 | 0.00 | 57 | 1011.3 |
| 20260504180842 | 70 | 218 | 3.0 | 6.0 | 0.00 | 0.00 | 0.00 | 56 | 1010.7 |
| 20260504180340 | 70 | 203 | 2.0 | 3.0 | 0.00 | 0.00 | 0.00 | 56 | 1010.8 |
| 20260504175838 | 71 | 275 | 2.0 | 6.0 | 0.00 | 0.00 | 0.00 | 56 | 1010.7 |
| 20260504175334 | 72 | 270 | 4.0 | 6.0 | 0.00 | 0.00 | 0.00 | 55 | 1010.7 |
| 20260504174833 | 71 | 70 | 1.0 | 3.0 | 0.00 | 0.00 | 0.00 | 58 | 1010.3 |
| 20260504174330 | 71 | 238 | 5.0 | 7.0 | 0.00 | 0.00 | 0.00 | 55 | 1010.4 |
| 20260504173826 | 71 | 136 | 2.0 | 3.0 | 0.00 | 0.00 | 0.00 | 56 | 1010.5 |
| 20260504173323 | 71 | 302 | 0.0 | 2.0 | 0.00 | 0.00 | 0.00 | 58 | 1010.5 |
| 20260504172820 | 70 | 264 | 3.0 | 7.0 | 0.00 | 0.00 | 0.00 | 57 | 1010.4 |
| 20260504172317 | 70 | 262 | 1.0 | 3.0 | 0.00 | 0.00 | 0.00 | 59 | 1010.6 |
| 20260504171813 | 70 | 295 | 1.0 | 3.0 | 0.00 | 0.00 | 0.00 | 59 | 1010.5 |
| 20260504171310 | 70 | 250 | 2.0 | 3.0 | 0.00 | 0.00 | 0.00 | 59 | 1010.9 |
| 20260504170807 | 69 | 236 | 3.0 | 5.0 | 0.00 | 0.00 | 0.00 | 58 | 1010.6 |
| 20260504170304 | 69 | 137 | 2.0 | 2.0 | 0.00 | 0.00 | 0.00 | 61 | 1010.5 |
| 20260504160222 | 66 | 124 | 1.0 | 2.0 | 0.00 | 0.00 | 0.00 | 63 | 1011.4 |
| 20260504150653 | 64 | 285 | 1.0 | 3.0 | 0.00 | 0.00 | 0.00 | 62 | 1011.5 |
| 20260504150149 | 63 | 241 | 1.0 | 5.0 | 0.00 | 0.00 | 0.00 | 63 | 1011.6 |
| 20260504141118 | 62 | 227 | 2.0 | 3.0 | 0.00 | 0.00 | 0.00 | 64 | 1011.6 |
| 20260504140615 | 62 | 223 | 1.0 | 3.0 | 0.00 | 0.00 | 0.00 | 64 | 1011.6 |
| 20260504140111 | 61 | 291 | 1.0 | 3.0 | 0.00 | 0.00 | 0.00 | 64 | 1011.6 |
| 20260504130539 | 58 | 244 | 3.0 | 3.0 | 0.00 | 0.00 | 0.00 | 67 | 1011.8 |
| 20260504110426 | 55 | 179 | 1.0 | 1.0 | 0.00 | 0.00 | 0.00 | 65 | 1011.7 |
| 20260504100349 | 52 | 121 | 0.0 | 2.0 | 0.00 | 0.00 | 0.00 | 68 | 1012.0 |
| 20260504081742 | 54 | 118 | 1.0 | 1.0 | 0.00 | 0.00 | 0.00 | 61 | 1012.7 |
| 20260504081238 | 54 | 188 | 1.0 | 2.0 | 0.00 | 0.00 | 0.00 | 60 | 1012.7 |
| 20260504080735 | 54 | 112 | 0.0 | 1.0 | 0.00 | 0.00 | 0.00 | 61 | 1012.9 |
| 20260504080232 | 54 | 138 | 0.0 | 1.0 | 0.00 | 0.00 | 0.00 | 60 | 1013.0 |
| 20260504070159 | 56 | 254 | 0.0 | 5.0 | 0.00 | 0.00 | 0.00 | 56 | 1013.2 |
| 20260504060120 | 56 | 215 | 1.0 | 6.0 | 0.00 | 0.00 | 0.00 | 55 | 1013.8 |